owner,sensor,date,latitude,longitude,vertical_datum,sea_water_temperature,qcFlag 
LUMCON,ioos:station:LUMCON:101:1,2004-04-01T07:00:00Z,29.2533,-90.6633,1.0,20.0,11111222 
LUMCON,ioos:station:LUMCON:101:1,2004-04-01T14:00:00Z,29.2533,-90.6633,1.0,17.7,11111222 
LUMCON,ioos:station:LUMCON:101:1,2004-04-01T15:00:00Z,29.2533,-90.6633,1.0,18.6,11111222 
LUMCON,ioos:station:LUMCON:101:1,2004-04-01T16:00:00Z,29.2533,-90.6633,1.0,19.1,11111222 
LUMCON,ioos:station:LUMCON:101:1,2004-04-01T17:00:00Z,29.2533,-90.6633,1.0,19.4,11111222 
LUMCON,ioos:station:LUMCON:101:1,2004-04-01T18:00:00Z,29.2533,-90.6633,1.0,19.7,11111222 
LUMCON,ioos:station:LUMCON:101:1,2004-04-01T19:00:00Z,29.2533,-90.6633,1.0,20.0,11111222 
LUMCON,ioos:station:LUMCON:101:1,2004-04-01T20:00:00Z,29.2533,-90.6633,1.0,20.4,11111222 
LUMCON,ioos:station:LUMCON:101:1,2004-04-01T21:00:00Z,29.2533,-90.6633,1.0,20.7,11111222 
LUMCON,ioos:station:LUMCON:101:1,2004-04-01T22:00:00Z,29.2533,-90.6633,1.0,20.7,11111222 
LUMCON,ioos:station:LUMCON:101:1,2004-04-01T23:00:00Z,29.2533,-90.6633,1.0,20.6,11111222 
LUMCON,ioos:station:LUMCON:101:1,2004-04-02T00:00:00Z,29.2533,-90.6633,1.0,20.5,11111222 
LUMCON,ioos:station:LUMCON:101:1,2004-04-02T01:00:00Z,29.2533,-90.6633,1.0,20.4,11111222 
LUMCON,ioos:station:LUMCON:101:1,2004-04-02T02:00:00Z,29.2533,-90.6633,1.0,20.3,11111222 
LUMCON,ioos:station:LUMCON:101:1,2004-04-02T03:00:00Z,29.2533,-90.6633,1.0,20.5,11111222 
LUMCON,ioos:station:LUMCON:101:1,2004-04-02T04:00:00Z,29.2533,-90.6633,1.0,20.3,11111222 
LUMCON,ioos:station:LUMCON:101:1,2004-04-02T05:00:00Z,29.2533,-90.6633,1.0,20.2,11111222 
LUMCON,ioos:station:LUMCON:101:1,2004-04-02T06:00:00Z,29.2533,-90.6633,1.0,20.0,11111222 
LUMCON,ioos:station:LUMCON:101:1,2004-04-02T07:00:00Z,29.2533,-90.6633,1.0,19.8,11111222 
LUMCON,ioos:station:LUMCON:101:1,2004-04-02T08:00:00Z,29.2533,-90.6633,1.0,19.7,11111222 
LUMCON,ioos:station:LUMCON:101:1,2004-04-02T09:00:00Z,29.2533,-90.6633,1.0,19.8,11111222 
LUMCON,ioos:station:LUMCON:101:1,2004-04-02T10:00:00Z,29.2533,-90.6633,1.0,19.9,11111222 
LUMCON,ioos:station:LUMCON:101:1,2004-04-02T11:00:00Z,29.2533,-90.6633,1.0,19.8,11111222 
LUMCON,ioos:station:LUMCON:101:1,2004-04-02T12:00:00Z,29.2533,-90.6633,1.0,19.7,11111222 
LUMCON,ioos:station:LUMCON:101:1,2004-04-02T13:00:00Z,29.2533,-90.6633,1.0,19.6,11111222 
LUMCON,ioos:station:LUMCON:101:1,2004-04-02T14:00:00Z,29.2533,-90.6633,1.0,19.7,11111222 
LUMCON,ioos:station:LUMCON:101:1,2004-04-02T15:00:00Z,29.2533,-90.6633,1.0,20.0,11111222 
LUMCON,ioos:station:LUMCON:101:1,2004-04-02T16:00:00Z,29.2533,-90.6633,1.0,20.1,11111222 
LUMCON,ioos:station:LUMCON:101:1,2004-04-02T17:00:00Z,29.2533,-90.6633,1.0,20.3,11111222 
LUMCON,ioos:station:LUMCON:101:1,2004-04-02T18:00:00Z,29.2533,-90.6633,1.0,20.6,11111222 
LUMCON,ioos:station:LUMCON:101:1,2004-04-02T19:00:00Z,29.2533,-90.6633,1.0,21.1,11111222 
LUMCON,ioos:station:LUMCON:101:1,2004-04-02T20:00:00Z,29.2533,-90.6633,1.0,20.8,11111222 
LUMCON,ioos:station:LUMCON:101:1,2004-04-02T22:00:00Z,29.2533,-90.6633,1.0,21.2,11111222 
LUMCON,ioos:station:LUMCON:101:1,2004-04-02T23:00:00Z,29.2533,-90.6633,1.0,21.8,11111222 
LUMCON,ioos:station:LUMCON:101:1,2004-04-03T00:00:00Z,29.2533,-90.6633,1.0,22.0,11111222 
LUMCON,ioos:station:LUMCON:101:1,2004-04-03T01:00:00Z,29.2533,-90.6633,1.0,22.3,11111222 
LUMCON,ioos:station:LUMCON:101:1,2004-04-03T02:00:00Z,29.2533,-90.6633,1.0,22.1,11111222 
LUMCON,ioos:station:LUMCON:101:1,2004-04-03T03:00:00Z,29.2533,-90.6633,1.0,22.1,11111222 
LUMCON,ioos:station:LUMCON:101:1,2004-04-03T04:00:00Z,29.2533,-90.6633,1.0,22.2,11111222 
LUMCON,ioos:station:LUMCON:101:1,2004-04-03T05:00:00Z,29.2533,-90.6633,1.0,22.2,11111222 
LUMCON,ioos:station:LUMCON:101:1,2004-04-03T06:00:00Z,29.2533,-90.6633,1.0,22.0,11111222 
LUMCON,ioos:station:LUMCON:101:1,2004-04-03T07:00:00Z,29.2533,-90.6633,1.0,21.8,11111222 
LUMCON,ioos:station:LUMCON:101:1,2004-04-03T08:00:00Z,29.2533,-90.6633,1.0,21.6,11111222 
LUMCON,ioos:station:LUMCON:101:1,2004-04-03T09:00:00Z,29.2533,-90.6633,1.0,21.3,11111222 
LUMCON,ioos:station:LUMCON:101:1,2004-04-03T10:00:00Z,29.2533,-90.6633,1.0,21.4,11111222 
LUMCON,ioos:station:LUMCON:101:1,2004-04-03T11:00:00Z,29.2533,-90.6633,1.0,21.4,11111222 
LUMCON,ioos:station:LUMCON:101:1,2004-04-03T12:00:00Z,29.2533,-90.6633,1.0,21.2,11111222 
LUMCON,ioos:station:LUMCON:101:1,2004-04-03T13:00:00Z,29.2533,-90.6633,1.0,21.1,11111222 
LUMCON,ioos:station:LUMCON:101:1,2004-04-03T14:00:00Z,29.2533,-90.6633,1.0,21.0,11111222 
LUMCON,ioos:station:LUMCON:101:1,2004-04-03T15:00:00Z,29.2533,-90.6633,1.0,21.1,11111222 
LUMCON,ioos:station:LUMCON:101:1,2004-04-03T16:00:00Z,29.2533,-90.6633,1.0,21.3,11111222 
LUMCON,ioos:station:LUMCON:101:1,2004-04-03T17:00:00Z,29.2533,-90.6633,1.0,21.5,11111222 
LUMCON,ioos:station:LUMCON:101:1,2004-04-03T18:00:00Z,29.2533,-90.6633,1.0,22.1,11111222 
LUMCON,ioos:station:LUMCON:101:1,2004-04-03T19:00:00Z,29.2533,-90.6633,1.0,22.4,11111222 
LUMCON,ioos:station:LUMCON:101:1,2004-04-03T20:00:00Z,29.2533,-90.6633,1.0,22.5,11111222 
LUMCON,ioos:station:LUMCON:101:1,2004-04-03T21:00:00Z,29.2533,-90.6633,1.0,22.0,11111222 
LUMCON,ioos:station:LUMCON:101:1,2004-04-03T22:00:00Z,29.2533,-90.6633,1.0,21.8,11111222 
LUMCON,ioos:station:LUMCON:101:1,2004-04-03T23:00:00Z,29.2533,-90.6633,1.0,22.0,11111222 
LUMCON,ioos:station:LUMCON:101:1,2004-04-04T00:00:00Z,29.2533,-90.6633,1.0,22.3,11111222 
LUMCON,ioos:station:LUMCON:101:1,2004-04-04T01:00:00Z,29.2533,-90.6633,1.0,22.4,11111222 
LUMCON,ioos:station:LUMCON:101:1,2004-04-04T02:00:00Z,29.2533,-90.6633,1.0,22.2,11111222 
LUMCON,ioos:station:LUMCON:101:1,2004-04-04T03:00:00Z,29.2533,-90.6633,1.0,22.2,11111222 
LUMCON,ioos:station:LUMCON:101:1,2004-04-04T04:00:00Z,29.2533,-90.6633,1.0,21.6,11111222 
LUMCON,ioos:station:LUMCON:101:1,2004-04-04T05:00:00Z,29.2533,-90.6633,1.0,22.1,11111222 
LUMCON,ioos:station:LUMCON:101:1,2004-04-04T06:00:00Z,29.2533,-90.6633,1.0,21.8,11111222 
LUMCON,ioos:station:LUMCON:101:1,2004-04-04T07:00:00Z,29.2533,-90.6633,1.0,21.8,11111222 
LUMCON,ioos:station:LUMCON:101:1,2004-04-04T08:00:00Z,29.2533,-90.6633,1.0,21.5,11111222 
LUMCON,ioos:station:LUMCON:101:1,2004-04-04T09:00:00Z,29.2533,-90.6633,1.0,21.4,11111222 
LUMCON,ioos:station:LUMCON:101:1,2004-04-04T10:00:00Z,29.2533,-90.6633,1.0,21.1,11111222 
LUMCON,ioos:station:LUMCON:101:1,2004-04-04T11:00:00Z,29.2533,-90.6633,1.0,20.9,11111222 
LUMCON,ioos:station:LUMCON:101:1,2004-04-04T12:00:00Z,29.2533,-90.6633,1.0,20.9,11111222 
LUMCON,ioos:station:LUMCON:101:1,2004-04-04T13:00:00Z,29.2533,-90.6633,1.0,20.9,11111222 
LUMCON,ioos:station:LUMCON:101:1,2004-04-04T14:00:00Z,29.2533,-90.6633,1.0,21.0,11111222 
LUMCON,ioos:station:LUMCON:101:1,2004-04-04T15:00:00Z,29.2533,-90.6633,1.0,21.3,11111222 
LUMCON,ioos:station:LUMCON:101:1,2004-04-04T16:00:00Z,29.2533,-90.6633,1.0,21.7,11111222 
LUMCON,ioos:station:LUMCON:101:1,2004-04-04T17:00:00Z,29.2533,-90.6633,1.0,22.0,11111222 
LUMCON,ioos:station:LUMCON:101:1,2004-04-04T18:00:00Z,29.2533,-90.6633,1.0,22.5,11111222 
LUMCON,ioos:station:LUMCON:101:1,2004-04-04T19:00:00Z,29.2533,-90.6633,1.0,22.5,11111222 
LUMCON,ioos:station:LUMCON:101:1,2004-04-04T20:00:00Z,29.2533,-90.6633,1.0,21.9,11111222 
LUMCON,ioos:station:LUMCON:101:1,2004-04-04T21:00:00Z,29.2533,-90.6633,1.0,22.2,11111222 
LUMCON,ioos:station:LUMCON:101:1,2004-04-04T22:00:00Z,29.2533,-90.6633,1.0,22.7,11111222 
LUMCON,ioos:station:LUMCON:101:1,2004-04-04T23:00:00Z,29.2533,-90.6633,1.0,23.7,11111222 
LUMCON,ioos:station:LUMCON:101:1,2004-04-05T00:00:00Z,29.2533,-90.6633,1.0,23.8,11111222 
LUMCON,ioos:station:LUMCON:101:1,2004-04-05T01:00:00Z,29.2533,-90.6633,1.0,23.6,11111222 
LUMCON,ioos:station:LUMCON:101:1,2004-04-05T02:00:00Z,29.2533,-90.6633,1.0,23.8,11111222 
LUMCON,ioos:station:LUMCON:101:1,2004-04-05T03:00:00Z,29.2533,-90.6633,1.0,23.8,11111222 
LUMCON,ioos:station:LUMCON:101:1,2004-04-05T04:00:00Z,29.2533,-90.6633,1.0,24.0,11111222 
LUMCON,ioos:station:LUMCON:101:1,2004-04-05T05:00:00Z,29.2533,-90.6633,1.0,23.4,11111222 
LUMCON,ioos:station:LUMCON:101:1,2004-04-05T06:00:00Z,29.2533,-90.6633,1.0,23.2,11111222 
LUMCON,ioos:station:LUMCON:101:1,2004-04-05T07:00:00Z,29.2533,-90.6633,1.0,22.7,11111222 
LUMCON,ioos:station:LUMCON:101:1,2004-04-05T08:00:00Z,29.2533,-90.6633,1.0,22.6,11111222 
LUMCON,ioos:station:LUMCON:101:1,2004-04-05T09:00:00Z,29.2533,-90.6633,1.0,22.9,11111222 
LUMCON,ioos:station:LUMCON:101:1,2004-04-05T10:00:00Z,29.2533,-90.6633,1.0,22.6,11111222 
LUMCON,ioos:station:LUMCON:101:1,2004-04-05T11:00:00Z,29.2533,-90.6633,1.0,22.8,11111222 
LUMCON,ioos:station:LUMCON:101:1,2004-04-05T12:00:00Z,29.2533,-90.6633,1.0,21.7,11111222 
LUMCON,ioos:station:LUMCON:101:1,2004-04-05T13:00:00Z,29.2533,-90.6633,1.0,21.4,11111222 
LUMCON,ioos:station:LUMCON:101:1,2004-04-05T14:00:00Z,29.2533,-90.6633,1.0,21.5,11111222 
LUMCON,ioos:station:LUMCON:101:1,2004-04-05T15:00:00Z,29.2533,-90.6633,1.0,22.5,11111222 
LUMCON,ioos:station:LUMCON:101:1,2004-04-05T16:00:00Z,29.2533,-90.6633,1.0,22.6,11111222 
LUMCON,ioos:station:LUMCON:101:1,2004-04-05T17:00:00Z,29.2533,-90.6633,1.0,22.6,11111222 
LUMCON,ioos:station:LUMCON:101:1,2004-04-05T19:00:00Z,29.2533,-90.6633,1.0,22.7,11111222 
LUMCON,ioos:station:LUMCON:101:1,2004-04-05T20:00:00Z,29.2533,-90.6633,1.0,22.3,11111222 
LUMCON,ioos:station:LUMCON:101:1,2004-04-05T21:00:00Z,29.2533,-90.6633,1.0,22.2,11111222 
LUMCON,ioos:station:LUMCON:101:1,2004-04-05T22:00:00Z,29.2533,-90.6633,1.0,22.3,11111222 
LUMCON,ioos:station:LUMCON:101:1,2004-04-05T23:00:00Z,29.2533,-90.6633,1.0,22.8,11111222 
LUMCON,ioos:station:LUMCON:101:1,2004-04-06T00:00:00Z,29.2533,-90.6633,1.0,22.7,11111222 
LUMCON,ioos:station:LUMCON:101:1,2004-04-06T01:00:00Z,29.2533,-90.6633,1.0,22.4,11111222 
LUMCON,ioos:station:LUMCON:101:1,2004-04-06T02:00:00Z,29.2533,-90.6633,1.0,22.2,11111222 
LUMCON,ioos:station:LUMCON:101:1,2004-04-06T03:00:00Z,29.2533,-90.6633,1.0,22.1,11111222 
LUMCON,ioos:station:LUMCON:101:1,2004-04-06T04:00:00Z,29.2533,-90.6633,1.0,22.0,11111222 
LUMCON,ioos:station:LUMCON:101:1,2004-04-06T05:00:00Z,29.2533,-90.6633,1.0,22.0,11111222 
LUMCON,ioos:station:LUMCON:101:1,2004-04-06T07:00:00Z,29.2533,-90.6633,1.0,22.1,11111222 
LUMCON,ioos:station:LUMCON:101:1,2004-04-06T08:00:00Z,29.2533,-90.6633,1.0,22.0,11111222 
LUMCON,ioos:station:LUMCON:101:1,2004-04-06T09:00:00Z,29.2533,-90.6633,1.0,21.8,11111222 
LUMCON,ioos:station:LUMCON:101:1,2004-04-06T10:00:00Z,29.2533,-90.6633,1.0,21.7,11111222 
LUMCON,ioos:station:LUMCON:101:1,2004-04-06T11:00:00Z,29.2533,-90.6633,1.0,21.5,11111222 
LUMCON,ioos:station:LUMCON:101:1,2004-04-06T12:00:00Z,29.2533,-90.6633,1.0,21.4,11111222 
LUMCON,ioos:station:LUMCON:101:1,2004-04-07T05:00:00Z,29.2533,-90.6633,1.0,21.8,11111222 
LUMCON,ioos:station:LUMCON:101:1,2004-04-07T08:00:00Z,29.2533,-90.6633,1.0,21.4,11111222 
LUMCON,ioos:station:LUMCON:101:1,2004-04-07T14:00:00Z,29.2533,-90.6633,1.0,21.5,11111222 
LUMCON,ioos:station:LUMCON:101:1,2004-04-07T19:00:00Z,29.2533,-90.6633,1.0,22.9,11111222 
LUMCON,ioos:station:LUMCON:101:1,2004-04-07T21:00:00Z,29.2533,-90.6633,1.0,23.8,11111222 
LUMCON,ioos:station:LUMCON:101:1,2004-04-07T22:00:00Z,29.2533,-90.6633,1.0,24.2,11111222 
LUMCON,ioos:station:LUMCON:101:1,2004-04-07T23:00:00Z,29.2533,-90.6633,1.0,24.4,11111222 
LUMCON,ioos:station:LUMCON:101:1,2004-04-08T00:00:00Z,29.2533,-90.6633,1.0,24.5,11111222 
LUMCON,ioos:station:LUMCON:101:1,2004-04-08T02:00:00Z,29.2533,-90.6633,1.0,24.2,11111222 
LUMCON,ioos:station:LUMCON:101:1,2004-04-08T04:00:00Z,29.2533,-90.6633,1.0,23.6,11111222 
LUMCON,ioos:station:LUMCON:101:1,2004-04-08T05:00:00Z,29.2533,-90.6633,1.0,23.4,11111222 
LUMCON,ioos:station:LUMCON:101:1,2004-04-08T07:00:00Z,29.2533,-90.6633,1.0,23.0,11111222 
LUMCON,ioos:station:LUMCON:101:1,2004-04-08T10:00:00Z,29.2533,-90.6633,1.0,22.8,11111222 
LUMCON,ioos:station:LUMCON:101:1,2004-04-08T16:00:00Z,29.2533,-90.6633,1.0,22.9,11111222 
LUMCON,ioos:station:LUMCON:101:1,2004-04-08T20:00:00Z,29.2533,-90.6633,1.0,24.2,11111222 
LUMCON,ioos:station:LUMCON:101:1,2004-04-09T00:00:00Z,29.2533,-90.6633,1.0,25.9,11111222 
LUMCON,ioos:station:LUMCON:101:1,2004-04-09T01:00:00Z,29.2533,-90.6633,1.0,25.9,11111222 
LUMCON,ioos:station:LUMCON:101:1,2004-04-09T05:00:00Z,29.2533,-90.6633,1.0,24.7,11111222 
LUMCON,ioos:station:LUMCON:101:1,2004-04-09T06:00:00Z,29.2533,-90.6633,1.0,24.3,11111222 
LUMCON,ioos:station:LUMCON:101:1,2004-04-09T17:00:00Z,29.2533,-90.6633,1.0,23.7,11111222 
LUMCON,ioos:station:LUMCON:101:1,2004-04-09T18:00:00Z,29.2533,-90.6633,1.0,24.0,11111222 
LUMCON,ioos:station:LUMCON:101:1,2004-04-09T23:00:00Z,29.2533,-90.6633,1.0,25.3,11111222 
LUMCON,ioos:station:LUMCON:101:1,2004-04-10T00:00:00Z,29.2533,-90.6633,1.0,25.6,11111222 
LUMCON,ioos:station:LUMCON:101:1,2004-04-10T01:00:00Z,29.2533,-90.6633,1.0,25.7,11111222 
LUMCON,ioos:station:LUMCON:101:1,2004-04-10T04:00:00Z,29.2533,-90.6633,1.0,25.6,11111222 
LUMCON,ioos:station:LUMCON:101:1,2004-04-10T07:00:00Z,29.2533,-90.6633,1.0,25.3,11111222 
LUMCON,ioos:station:LUMCON:101:1,2004-04-10T10:00:00Z,29.2533,-90.6633,1.0,24.7,11111222 
LUMCON,ioos:station:LUMCON:101:1,2004-04-10T12:00:00Z,29.2533,-90.6633,1.0,24.3,11111222 
LUMCON,ioos:station:LUMCON:101:1,2004-04-10T20:00:00Z,29.2533,-90.6633,1.0,24.3,11111222 
LUMCON,ioos:station:LUMCON:101:1,2004-04-10T23:00:00Z,29.2533,-90.6633,1.0,26.0,11111222 
LUMCON,ioos:station:LUMCON:101:1,2004-04-11T02:00:00Z,29.2533,-90.6633,1.0,26.2,11111222 
LUMCON,ioos:station:LUMCON:101:1,2004-04-11T03:00:00Z,29.2533,-90.6633,1.0,26.0,11111222 
LUMCON,ioos:station:LUMCON:101:1,2004-04-11T06:00:00Z,29.2533,-90.6633,1.0,25.7,11111222 
LUMCON,ioos:station:LUMCON:101:1,2004-04-11T09:00:00Z,29.2533,-90.6633,1.0,25.5,11111222 
LUMCON,ioos:station:LUMCON:101:1,2004-04-12T16:00:00Z,29.2533,-90.6633,1.0,21.4,11111222 
LUMCON,ioos:station:LUMCON:101:1,2004-04-12T17:00:00Z,29.2533,-90.6633,1.0,21.4,11111222 
LUMCON,ioos:station:LUMCON:101:1,2004-04-12T18:00:00Z,29.2533,-90.6633,1.0,21.5,11111222 
LUMCON,ioos:station:LUMCON:101:1,2004-04-12T22:00:00Z,29.2533,-90.6633,1.0,21.7,11111222 
LUMCON,ioos:station:LUMCON:101:1,2004-04-13T00:00:00Z,29.2533,-90.6633,1.0,21.6,11111222 
LUMCON,ioos:station:LUMCON:101:1,2004-04-13T02:00:00Z,29.2533,-90.6633,1.0,20.9,11111222 
LUMCON,ioos:station:LUMCON:101:1,2004-04-13T06:00:00Z,29.2533,-90.6633,1.0,18.6,11111222 
LUMCON,ioos:station:LUMCON:101:1,2004-04-13T07:00:00Z,29.2533,-90.6633,1.0,18.0,11111222 
LUMCON,ioos:station:LUMCON:101:1,2004-04-13T08:00:00Z,29.2533,-90.6633,1.0,17.5,11111222 
LUMCON,ioos:station:LUMCON:101:1,2004-04-13T10:00:00Z,29.2533,-90.6633,1.0,16.3,11111222 
LUMCON,ioos:station:LUMCON:101:1,2004-04-13T16:00:00Z,29.2533,-90.6633,1.0,14.9,11111222 
LUMCON,ioos:station:LUMCON:101:1,2004-04-13T17:00:00Z,29.2533,-90.6633,1.0,15.3,11111222 
LUMCON,ioos:station:LUMCON:101:1,2004-04-13T20:00:00Z,29.2533,-90.6633,1.0,17.2,11111222 
LUMCON,ioos:station:LUMCON:101:1,2004-04-13T21:00:00Z,29.2533,-90.6633,1.0,18.0,11111222 
LUMCON,ioos:station:LUMCON:101:1,2004-04-13T22:00:00Z,29.2533,-90.6633,1.0,18.9,11111222 
LUMCON,ioos:station:LUMCON:101:1,2004-04-14T01:00:00Z,29.2533,-90.6633,1.0,18.6,11111222 
LUMCON,ioos:station:LUMCON:101:1,2004-04-14T04:00:00Z,29.2533,-90.6633,1.0,18.2,11111222 
LUMCON,ioos:station:LUMCON:101:1,2004-04-14T05:00:00Z,29.2533,-90.6633,1.0,17.7,11111222 
LUMCON,ioos:station:LUMCON:101:1,2004-04-14T15:00:00Z,29.2533,-90.6633,1.0,14.5,11111222 
LUMCON,ioos:station:LUMCON:101:1,2004-04-14T16:00:00Z,29.2533,-90.6633,1.0,14.8,11111222 
LUMCON,ioos:station:LUMCON:101:1,2004-04-14T18:00:00Z,29.2533,-90.6633,1.0,17.0,11111222 
LUMCON,ioos:station:LUMCON:101:1,2004-04-15T00:00:00Z,29.2533,-90.6633,1.0,19.7,11111222 
LUMCON,ioos:station:LUMCON:101:1,2004-04-15T01:00:00Z,29.2533,-90.6633,1.0,19.3,11111222 
LUMCON,ioos:station:LUMCON:101:1,2004-04-15T05:00:00Z,29.2533,-90.6633,1.0,18.6,11111222 
LUMCON,ioos:station:LUMCON:101:1,2004-04-15T06:00:00Z,29.2533,-90.6633,1.0,18.2,11111222 
LUMCON,ioos:station:LUMCON:101:1,2004-04-15T08:00:00Z,29.2533,-90.6633,1.0,17.4,11111222 
LUMCON,ioos:station:LUMCON:101:1,2004-04-16T02:00:00Z,29.2533,-90.6633,1.0,20.3,11111222 
LUMCON,ioos:station:LUMCON:101:1,2004-04-16T03:00:00Z,29.2533,-90.6633,1.0,20.3,11111222 
LUMCON,ioos:station:LUMCON:101:1,2004-04-16T07:00:00Z,29.2533,-90.6633,1.0,20.5,11111222 
LUMCON,ioos:station:LUMCON:101:1,2004-04-16T09:00:00Z,29.2533,-90.6633,1.0,20.0,11111222 
LUMCON,ioos:station:LUMCON:101:1,2004-04-16T21:00:00Z,29.2533,-90.6633,1.0,21.0,11111222 
LUMCON,ioos:station:LUMCON:101:1,2004-04-17T00:00:00Z,29.2533,-90.6633,1.0,22.1,11111222 
LUMCON,ioos:station:LUMCON:101:1,2004-04-17T06:00:00Z,29.2533,-90.6633,1.0,22.1,11111222 
LUMCON,ioos:station:LUMCON:101:1,2004-04-17T09:00:00Z,29.2533,-90.6633,1.0,22.1,11111222 
LUMCON,ioos:station:LUMCON:101:1,2004-04-17T11:00:00Z,29.2533,-90.6633,1.0,21.7,11111222 
LUMCON,ioos:station:LUMCON:101:1,2004-04-17T16:00:00Z,29.2533,-90.6633,1.0,21.2,11111222 
LUMCON,ioos:station:LUMCON:101:1,2004-04-17T17:00:00Z,29.2533,-90.6633,1.0,21.3,11111222 
LUMCON,ioos:station:LUMCON:101:1,2004-04-18T08:00:00Z,29.2533,-90.6633,1.0,22.7,11111222 
LUMCON,ioos:station:LUMCON:101:1,2004-04-18T11:00:00Z,29.2533,-90.6633,1.0,22.6,11111222 
LUMCON,ioos:station:LUMCON:101:1,2004-04-18T12:00:00Z,29.2533,-90.6633,1.0,22.6,11111222 
LUMCON,ioos:station:LUMCON:101:1,2004-04-18T13:00:00Z,29.2533,-90.6633,1.0,22.5,11111222 
LUMCON,ioos:station:LUMCON:101:1,2004-04-18T14:00:00Z,29.2533,-90.6633,1.0,22.4,11111222 
LUMCON,ioos:station:LUMCON:101:1,2004-04-18T21:00:00Z,29.2533,-90.6633,1.0,24.3,11111222 
LUMCON,ioos:station:LUMCON:101:1,2004-04-18T23:00:00Z,29.2533,-90.6633,1.0,25.3,11111222 
LUMCON,ioos:station:LUMCON:101:1,2004-04-19T00:00:00Z,29.2533,-90.6633,1.0,25.5,11111222 
LUMCON,ioos:station:LUMCON:101:1,2004-04-19T06:00:00Z,29.2533,-90.6633,1.0,24.0,11111222 
LUMCON,ioos:station:LUMCON:101:1,2004-04-19T09:00:00Z,29.2533,-90.6633,1.0,23.4,11111222 
LUMCON,ioos:station:LUMCON:101:1,2004-04-19T14:00:00Z,29.2533,-90.6633,1.0,22.5,11111222 
LUMCON,ioos:station:LUMCON:101:1,2004-04-19T15:00:00Z,29.2533,-90.6633,1.0,22.4,11111222 
LUMCON,ioos:station:LUMCON:101:1,2004-04-19T16:00:00Z,29.2533,-90.6633,1.0,22.4,11111222 
LUMCON,ioos:station:LUMCON:101:1,2004-04-19T18:00:00Z,29.2533,-90.6633,1.0,23.4,11111222 
LUMCON,ioos:station:LUMCON:101:1,2004-04-20T05:00:00Z,29.2533,-90.6633,1.0,25.2,11111222 
LUMCON,ioos:station:LUMCON:101:1,2004-04-20T07:00:00Z,29.2533,-90.6633,1.0,24.7,11111222 
LUMCON,ioos:station:LUMCON:101:1,2004-04-20T08:00:00Z,29.2533,-90.6633,1.0,24.5,11111222 
LUMCON,ioos:station:LUMCON:101:1,2004-04-20T09:00:00Z,29.2533,-90.6633,1.0,24.4,11111222 
LUMCON,ioos:station:LUMCON:101:1,2004-04-20T15:00:00Z,29.2533,-90.6633,1.0,22.8,11111222 
LUMCON,ioos:station:LUMCON:101:1,2004-04-21T07:00:00Z,29.2533,-90.6633,1.0,23.3,11111222 
LUMCON,ioos:station:LUMCON:101:1,2004-04-21T14:00:00Z,29.2533,-90.6633,1.0,22.5,11111222 
LUMCON,ioos:station:LUMCON:101:1,2004-04-21T21:00:00Z,29.2533,-90.6633,1.0,24.6,11111222 
LUMCON,ioos:station:LUMCON:101:1,2004-04-21T22:00:00Z,29.2533,-90.6633,1.0,24.9,11111222 
LUMCON,ioos:station:LUMCON:101:1,2004-04-21T23:00:00Z,29.2533,-90.6633,1.0,25.2,11111222 
LUMCON,ioos:station:LUMCON:101:1,2004-04-22T01:00:00Z,29.2533,-90.6633,1.0,25.2,11111222 
LUMCON,ioos:station:LUMCON:101:1,2004-04-22T02:00:00Z,29.2533,-90.6633,1.0,25.1,11111222 
LUMCON,ioos:station:LUMCON:101:1,2004-04-22T03:00:00Z,29.2533,-90.6633,1.0,25.0,11111222 
LUMCON,ioos:station:LUMCON:101:1,2004-04-22T04:00:00Z,29.2533,-90.6633,1.0,24.8,11111222 
LUMCON,ioos:station:LUMCON:101:1,2004-04-22T05:00:00Z,29.2533,-90.6633,1.0,24.6,11111222 
LUMCON,ioos:station:LUMCON:101:1,2004-04-22T06:00:00Z,29.2533,-90.6633,1.0,24.1,11111222 
LUMCON,ioos:station:LUMCON:101:1,2004-04-22T07:00:00Z,29.2533,-90.6633,1.0,24.0,11111222 
LUMCON,ioos:station:LUMCON:101:1,2004-04-22T08:00:00Z,29.2533,-90.6633,1.0,24.1,11111222 
LUMCON,ioos:station:LUMCON:101:1,2004-04-22T09:00:00Z,29.2533,-90.6633,1.0,23.8,11111222 
LUMCON,ioos:station:LUMCON:101:1,2004-04-22T10:00:00Z,29.2533,-90.6633,1.0,23.5,11111222 
LUMCON,ioos:station:LUMCON:101:1,2004-04-22T11:00:00Z,29.2533,-90.6633,1.0,23.4,11111222 
LUMCON,ioos:station:LUMCON:101:1,2004-04-22T12:00:00Z,29.2533,-90.6633,1.0,23.3,11111222 
LUMCON,ioos:station:LUMCON:101:1,2004-04-22T13:00:00Z,29.2533,-90.6633,1.0,23.2,11111222 
LUMCON,ioos:station:LUMCON:101:1,2004-04-22T14:00:00Z,29.2533,-90.6633,1.0,23.2,11111222 
LUMCON,ioos:station:LUMCON:101:1,2004-04-22T16:00:00Z,29.2533,-90.6633,1.0,23.5,11111222 
LUMCON,ioos:station:LUMCON:101:1,2004-04-22T17:00:00Z,29.2533,-90.6633,1.0,23.8,11111222 
LUMCON,ioos:station:LUMCON:101:1,2004-04-22T18:00:00Z,29.2533,-90.6633,1.0,24.1,11111222 
LUMCON,ioos:station:LUMCON:101:1,2004-04-22T19:00:00Z,29.2533,-90.6633,1.0,24.3,11111222 
LUMCON,ioos:station:LUMCON:101:1,2004-04-22T20:00:00Z,29.2533,-90.6633,1.0,24.8,11111222 
LUMCON,ioos:station:LUMCON:101:1,2004-04-22T21:00:00Z,29.2533,-90.6633,1.0,25.6,11111222 
LUMCON,ioos:station:LUMCON:101:1,2004-04-22T22:00:00Z,29.2533,-90.6633,1.0,26.2,11111222 
LUMCON,ioos:station:LUMCON:101:1,2004-04-22T23:00:00Z,29.2533,-90.6633,1.0,26.3,11111222 
LUMCON,ioos:station:LUMCON:101:1,2004-04-23T00:00:00Z,29.2533,-90.6633,1.0,26.4,11111222 
LUMCON,ioos:station:LUMCON:101:1,2004-04-23T01:00:00Z,29.2533,-90.6633,1.0,26.3,11111222 
LUMCON,ioos:station:LUMCON:101:1,2004-04-23T03:00:00Z,29.2533,-90.6633,1.0,25.9,11111222 
LUMCON,ioos:station:LUMCON:101:1,2004-04-23T04:00:00Z,29.2533,-90.6633,1.0,25.6,11111222 
LUMCON,ioos:station:LUMCON:101:1,2004-04-23T05:00:00Z,29.2533,-90.6633,1.0,25.3,11111222 
LUMCON,ioos:station:LUMCON:101:1,2004-04-23T06:00:00Z,29.2533,-90.6633,1.0,25.1,11111222 
LUMCON,ioos:station:LUMCON:101:1,2004-04-23T07:00:00Z,29.2533,-90.6633,1.0,24.9,11111222 
LUMCON,ioos:station:LUMCON:101:1,2004-04-23T08:00:00Z,29.2533,-90.6633,1.0,24.7,11111222 
LUMCON,ioos:station:LUMCON:101:1,2004-04-23T09:00:00Z,29.2533,-90.6633,1.0,24.6,11111222 
LUMCON,ioos:station:LUMCON:101:1,2004-04-23T10:00:00Z,29.2533,-90.6633,1.0,24.8,11111222 
LUMCON,ioos:station:LUMCON:101:1,2004-04-23T11:00:00Z,29.2533,-90.6633,1.0,24.7,11111222 
LUMCON,ioos:station:LUMCON:101:1,2004-04-23T15:00:00Z,29.2533,-90.6633,1.0,24.7,11111222 
LUMCON,ioos:station:LUMCON:101:1,2004-04-23T16:00:00Z,29.2533,-90.6633,1.0,24.8,11111222 
LUMCON,ioos:station:LUMCON:101:1,2004-04-23T17:00:00Z,29.2533,-90.6633,1.0,25.0,11111222 
LUMCON,ioos:station:LUMCON:101:1,2004-04-23T18:00:00Z,29.2533,-90.6633,1.0,25.2,11111222 
LUMCON,ioos:station:LUMCON:101:1,2004-04-23T19:00:00Z,29.2533,-90.6633,1.0,25.5,11111222 
LUMCON,ioos:station:LUMCON:101:1,2004-04-23T20:00:00Z,29.2533,-90.6633,1.0,25.7,11111222 
LUMCON,ioos:station:LUMCON:101:1,2004-04-23T21:00:00Z,29.2533,-90.6633,1.0,25.8,11111222 
LUMCON,ioos:station:LUMCON:101:1,2004-04-29T15:00:00Z,29.2533,-90.6633,1.0,23.4,11111222 
LUMCON,ioos:station:LUMCON:101:1,2004-04-29T16:00:00Z,29.2533,-90.6633,1.0,23.3,11111222 
LUMCON,ioos:station:LUMCON:101:1,2004-04-29T17:00:00Z,29.2533,-90.6633,1.0,23.8,11111222 
LUMCON,ioos:station:LUMCON:101:1,2004-04-29T18:00:00Z,29.2533,-90.6633,1.0,23.3,11111222 
LUMCON,ioos:station:LUMCON:101:1,2004-04-29T19:00:00Z,29.2533,-90.6633,1.0,23.1,11111222 
LUMCON,ioos:station:LUMCON:101:1,2004-04-29T20:00:00Z,29.2533,-90.6633,1.0,23.2,11111222 
LUMCON,ioos:station:LUMCON:101:1,2004-04-29T21:00:00Z,29.2533,-90.6633,1.0,23.1,11111222 
LUMCON,ioos:station:LUMCON:101:1,2004-04-29T22:00:00Z,29.2533,-90.6633,1.0,23.1,11111222 
LUMCON,ioos:station:LUMCON:101:1,2004-04-29T23:00:00Z,29.2533,-90.6633,1.0,23.2,11111222 
LUMCON,ioos:station:LUMCON:101:1,2004-04-30T00:00:00Z,29.2533,-90.6633,1.0,23.3,11111222 
LUMCON,ioos:station:LUMCON:101:1,2004-04-30T01:00:00Z,29.2533,-90.6633,1.0,24.0,11111222 
LUMCON,ioos:station:LUMCON:101:1,2004-04-30T02:00:00Z,29.2533,-90.6633,1.0,24.0,11111222 
LUMCON,ioos:station:LUMCON:101:1,2004-04-30T03:00:00Z,29.2533,-90.6633,1.0,24.0,11111222 